Time,TemperatureF,DewpointF,PressureIn,WindDirection,WindDirectionDegrees,WindSpeedMPH,WindSpeedGustMPH,Humidity,HourlyPrecipIn,Conditions,Clouds,dailyrainin,SoftwareType,DateUTC
2013-02-17 00:02:00,21.0,2.0,-100.00,East,90,3.0,12.0,43,0.00,,,-99.99,,2013-02-17 05:02:00,
2013-02-17 00:12:00,21.0,2.0,-100.00,WNW,295,4.0,18.0,43,0.00,,,-99.99,,2013-02-17 05:12:00,
2013-02-17 00:22:00,21.0,2.0,-100.00,West,275,4.0,11.0,44,0.00,,,-99.99,,2013-02-17 05:22:00,
2013-02-17 00:33:00,20.0,2.0,-100.00,South,180,4.0,12.0,44,0.00,,,-99.99,,2013-02-17 05:33:00,
2013-02-17 00:42:00,20.0,2.0,-100.00,South,185,3.0,14.0,45,0.00,,,-99.99,,2013-02-17 05:42:00,
2013-02-17 00:52:00,20.0,2.0,-100.00,NNE,20,1.0,9.0,45,0.00,,,-99.99,,2013-02-17 05:52:00,
2013-02-17 01:02:00,20.0,2.0,-100.00,East,80,2.0,9.0,45,0.00,,,-99.99,,2013-02-17 06:02:00,
2013-02-17 01:11:00,20.0,2.0,-100.00,NNE,20,5.0,16.0,45,0.00,,,-99.99,,2013-02-17 06:11:00,
2013-02-17 01:21:00,19.0,1.0,-100.00,WNW,285,4.0,20.0,44,0.00,,,-99.99,,2013-02-17 06:21:00,
2013-02-17 01:32:00,19.0,2.0,-100.00,West,260,5.0,11.0,45,0.00,,,-99.99,,2013-02-17 06:32:00,
2013-02-17 01:41:00,19.0,1.0,-100.00,NNE,15,4.0,9.0,45,0.00,,,-99.99,,2013-02-17 06:41:00,
2013-02-17 01:51:00,19.0,2.0,-100.00,WNW,290,4.0,10.0,45,0.00,,,-99.99,,2013-02-17 06:51:00,
2013-02-17 02:01:00,19.0,1.0,-100.00,West,275,4.0,11.0,45,0.00,,,-99.99,,2013-02-17 07:01:00,
2013-02-17 02:11:00,19.0,1.0,-100.00,West,275,3.0,15.0,45,0.00,,,-99.99,,2013-02-17 07:11:00,
2013-02-17 02:21:00,19.0,1.0,-100.00,WNW,300,4.0,13.0,45,0.00,,,-99.99,,2013-02-17 07:21:00,
2013-02-17 02:32:00,19.0,1.0,-100.00,WNW,295,4.0,9.0,46,0.00,,,-99.99,,2013-02-17 07:32:00,
2013-02-17 02:41:00,18.0,2.0,-100.00,West,275,2.0,12.0,47,0.00,,,-99.99,,2013-02-17 07:41:00,
2013-02-17 02:51:00,18.0,2.0,-100.00,WNW,295,7.0,12.0,47,0.00,,,-99.99,,2013-02-17 07:51:00,
2013-02-17 03:01:00,18.0,2.0,-100.00,WNW,295,4.0,11.0,48,0.00,,,-99.99,,2013-02-17 08:01:00,
2013-02-17 03:11:00,18.0,2.0,-100.00,West,275,5.0,9.0,48,0.00,,,-99.99,,2013-02-17 08:11:00,
2013-02-17 03:21:00,18.0,2.0,-100.00,North,0,2.0,7.0,49,0.00,,,-99.99,,2013-02-17 08:21:00,
2013-02-17 03:32:00,18.0,2.0,-100.00,NW,315,1.0,9.0,48,0.00,,,-99.99,,2013-02-17 08:32:00,
2013-02-17 03:42:00,18.0,2.0,-100.00,North,5,2.0,9.0,49,0.00,,,-99.99,,2013-02-17 08:42:00,
2013-02-17 03:52:00,17.0,1.0,-100.00,WNW,295,3.0,10.0,48,0.00,,,-99.99,,2013-02-17 08:52:00,
2013-02-17 04:02:00,17.0,1.0,-100.00,WNW,300,2.0,9.0,48,0.00,,,-99.99,,2013-02-17 09:02:00,
2013-02-17 04:11:00,17.0,1.0,-100.00,WSW,255,4.0,11.0,49,0.00,,,-99.99,,2013-02-17 09:11:00,
2013-02-17 04:21:00,17.0,1.0,-100.00,NNW,330,4.0,11.0,49,0.00,,,-99.99,,2013-02-17 09:21:00,
2013-02-17 04:31:00,17.0,1.0,-100.00,West,275,4.0,10.0,49,0.00,,,-99.99,,2013-02-17 09:31:00,
2013-02-17 04:42:00,17.0,1.0,-100.00,SE,145,3.0,12.0,49,0.00,,,-99.99,,2013-02-17 09:42:00,
2013-02-17 04:51:00,17.0,1.0,-100.00,West,270,6.0,11.0,48,0.00,,,-99.99,,2013-02-17 09:51:00,
2013-02-17 05:01:00,17.0,0.0,-100.00,WNW,285,3.0,12.0,48,0.00,,,-99.99,,2013-02-17 10:01:00,
2013-02-17 05:11:00,17.0,0.0,-100.00,WNW,290,6.0,14.0,48,0.00,,,-99.99,,2013-02-17 10:11:00,
2013-02-17 05:21:00,17.0,0.0,-100.00,South,180,4.0,14.0,48,0.00,,,-99.99,,2013-02-17 10:21:00,
2013-02-17 05:32:00,16.0,0.0,-100.00,SW,220,4.0,12.0,47,0.00,,,-99.99,,2013-02-17 10:32:00,
2013-02-17 05:41:00,16.0,0.0,-100.00,SW,230,4.0,13.0,48,0.00,,,-99.99,,2013-02-17 10:41:00,
2013-02-17 05:52:00,16.0,0.0,-100.00,West,265,5.0,14.0,48,0.00,,,-99.99,,2013-02-17 10:52:00,
2013-02-17 06:01:00,16.0,0.0,-100.00,WNW,285,4.0,10.0,48,0.00,,,-99.99,,2013-02-17 11:01:00,
2013-02-17 06:11:00,16.0,0.0,-100.00,WSW,255,4.0,16.0,48,0.00,,,-99.99,,2013-02-17 11:11:00,
2013-02-17 06:21:00,16.0,0.0,-100.00,West,265,5.0,12.0,49,0.00,,,-99.99,,2013-02-17 11:21:00,
2013-02-17 06:32:00,16.0,0.0,-100.00,NNW,335,4.0,16.0,48,0.00,,,-99.99,,2013-02-17 11:32:00,
2013-02-17 06:42:00,16.0,0.0,-100.00,NW,310,4.0,12.0,49,0.00,,,-99.99,,2013-02-17 11:42:00,
2013-02-17 06:52:00,15.0,-1.0,-100.00,WNW,295,7.0,19.0,47,0.00,,,-99.99,,2013-02-17 11:52:00,
2013-02-17 07:03:00,15.0,-1.0,-100.00,WNW,290,4.0,13.0,48,0.00,,,-99.99,,2013-02-17 12:03:00,
2013-02-17 07:11:00,15.0,-1.0,-100.00,West,270,4.0,10.0,48,0.00,,,-99.99,,2013-02-17 12:11:00,
2013-02-17 07:22:00,15.0,0.0,-100.00,SSW,195,4.0,12.0,49,0.00,,,-99.99,,2013-02-17 12:22:00,
2013-02-17 07:32:00,15.0,-1.0,-100.00,NW,305,6.0,16.0,49,0.00,,,-99.99,,2013-02-17 12:32:00,
2013-02-17 07:42:00,15.0,-1.0,-100.00,West,280,5.0,16.0,49,0.00,,,-99.99,,2013-02-17 12:42:00,
2013-02-17 07:52:00,15.0,-1.0,-100.00,West,280,6.0,15.0,49,0.00,,,-99.99,,2013-02-17 12:52:00,
2013-02-17 08:02:00,15.0,-1.0,-100.00,West,280,4.0,12.0,49,0.00,,,-99.99,,2013-02-17 13:02:00,
2013-02-17 08:12:00,15.0,0.0,-100.00,WNW,285,6.0,14.0,51,0.00,,,-99.99,,2013-02-17 13:12:00,
2013-02-17 08:22:00,15.0,0.0,-100.00,WSW,245,4.0,19.0,52,0.00,,,-99.99,,2013-02-17 13:22:00,
2013-02-17 08:32:00,15.0,1.0,-100.00,West,275,8.0,19.0,53,0.00,,,-99.99,,2013-02-17 13:32:00,
2013-02-17 08:41:00,14.0,1.0,-100.00,WNW,285,3.0,17.0,54,0.00,,,-99.99,,2013-02-17 13:41:00,
2013-02-17 08:51:00,14.0,1.0,-100.00,West,260,5.0,14.0,54,0.00,,,-99.99,,2013-02-17 13:51:00,
2013-02-17 09:01:00,14.0,1.0,-100.00,WSW,240,7.0,17.0,55,0.00,,,-99.99,,2013-02-17 14:01:00,
2013-02-17 09:11:00,15.0,1.0,-100.00,WNW,295,6.0,18.0,55,0.00,,,-99.99,,2013-02-17 14:11:00,
2013-02-17 09:21:00,14.0,2.0,-100.00,South,185,6.0,15.0,56,0.00,,,-99.99,,2013-02-17 14:21:00,
2013-02-17 09:32:00,15.0,2.0,-100.00,West,265,6.0,12.0,57,0.00,,,-99.99,,2013-02-17 14:32:00,
2013-02-17 09:42:00,15.0,2.0,-100.00,WSW,250,6.0,12.0,57,0.00,,,-99.99,,2013-02-17 14:42:00,
2013-02-17 09:52:00,15.0,2.0,-100.00,West,260,7.0,16.0,58,0.00,,,-99.99,,2013-02-17 14:52:00,
2013-02-17 10:02:00,15.0,2.0,-100.00,West,260,7.0,16.0,58,0.00,,,-99.99,,2013-02-17 15:02:00,
2013-02-17 10:11:00,15.0,2.0,-100.00,West,260,7.0,16.0,58,0.00,,,-99.99,,2013-02-17 15:11:00,
2013-02-17 10:21:00,15.0,2.0,-100.00,West,260,7.0,16.0,58,0.00,,,-99.99,,2013-02-17 15:21:00,
2013-02-17 10:32:00,15.0,2.0,-100.00,West,265,7.0,22.0,57,0.00,,,-99.99,,2013-02-17 15:32:00,
2013-02-17 10:42:00,15.0,2.0,-100.00,WSW,240,7.0,22.0,56,0.00,,,-99.99,,2013-02-17 15:42:00,
2013-02-17 10:52:00,15.0,2.0,-100.00,West,260,9.0,20.0,55,0.00,,,-99.99,,2013-02-17 15:52:00,
2013-02-17 11:01:00,16.0,3.0,-100.00,WSW,250,6.0,20.0,56,0.00,,,-99.99,,2013-02-17 16:01:00,
2013-02-17 11:11:00,15.0,3.0,-100.00,West,275,4.0,16.0,57,0.00,,,-99.99,,2013-02-17 16:11:00,
2013-02-17 11:21:00,15.0,3.0,-100.00,SSW,205,5.0,16.0,56,0.00,,,-99.99,,2013-02-17 16:21:00,
2013-02-17 11:32:00,15.0,2.0,-100.00,South,175,7.0,16.0,56,0.00,,,-99.99,,2013-02-17 16:32:00,
2013-02-17 11:42:00,15.0,2.0,-100.00,West,270,7.0,21.0,55,0.00,,,-99.99,,2013-02-17 16:42:00,
2013-02-17 11:51:00,16.0,2.0,-100.00,WSW,250,7.0,19.0,54,0.00,,,-99.99,,2013-02-17 16:51:00,
2013-02-17 12:02:00,16.0,2.0,-100.00,WSW,255,7.0,14.0,54,0.00,,,-99.99,,2013-02-17 17:02:00,
2013-02-17 12:11:00,15.0,2.0,-100.00,WSW,250,6.0,17.0,54,0.00,,,-99.99,,2013-02-17 17:11:00,
2013-02-17 12:21:00,16.0,2.0,-100.00,WSW,245,6.0,16.0,53,0.00,,,-99.99,,2013-02-17 17:21:00,
2013-02-17 12:32:00,15.0,1.0,-100.00,NW,305,5.0,19.0,53,0.00,,,-99.99,,2013-02-17 17:32:00,
2013-02-17 12:42:00,15.0,1.0,-100.00,SW,230,6.0,22.0,52,0.00,,,-99.99,,2013-02-17 17:42:00,
2013-02-17 12:52:00,15.0,1.0,-100.00,SW,225,8.0,23.0,51,0.00,,,-99.99,,2013-02-17 17:52:00,
2013-02-17 13:02:00,15.0,0.0,-100.00,WNW,285,5.0,22.0,51,0.00,,,-99.99,,2013-02-17 18:02:00,
2013-02-17 13:11:00,16.0,1.0,-100.00,West,275,6.0,16.0,51,0.00,,,-99.99,,2013-02-17 18:11:00,
2013-02-17 13:22:00,16.0,0.0,-100.00,WSW,255,10.0,20.0,50,0.00,,,-99.99,,2013-02-17 18:22:00,
2013-02-17 13:33:00,16.0,1.0,-100.00,WSW,255,6.0,18.0,50,0.00,,,-99.99,,2013-02-17 18:33:00,
2013-02-17 13:42:00,16.0,0.0,-100.00,WNW,300,7.0,22.0,50,0.00,,,-99.99,,2013-02-17 18:42:00,
2013-02-17 13:52:00,16.0,0.0,-100.00,WSW,240,7.0,17.0,49,0.00,,,-99.99,,2013-02-17 18:52:00,
2013-02-17 14:01:00,16.0,0.0,-100.00,SW,220,9.0,24.0,49,0.00,,,-99.99,,2013-02-17 19:01:00,
2013-02-17 14:11:00,16.0,0.0,-100.00,West,265,5.0,17.0,49,0.00,,,-99.99,,2013-02-17 19:11:00,
2013-02-17 14:21:00,16.0,0.0,-100.00,WSW,250,6.0,17.0,49,0.00,,,-99.99,,2013-02-17 19:21:00,
2013-02-17 14:32:00,17.0,1.0,-100.00,SW,220,6.0,17.0,49,0.00,,,-99.99,,2013-02-17 19:32:00,
2013-02-17 14:42:00,17.0,0.0,-100.00,WNW,290,9.0,19.0,47,0.00,,,-99.99,,2013-02-17 19:42:00,
2013-02-17 14:51:00,17.0,0.0,-100.00,WNW,285,9.0,26.0,47,0.00,,,-99.99,,2013-02-17 19:51:00,
2013-02-17 15:02:00,17.0,1.0,-100.00,SSW,210,7.0,21.0,48,0.00,,,-99.99,,2013-02-17 20:02:00,
2013-02-17 15:11:00,17.0,1.0,-100.00,West,265,4.0,14.0,49,0.00,,,-99.99,,2013-02-17 20:11:00,
2013-02-17 15:22:00,18.0,2.0,-100.00,WSW,250,8.0,18.0,49,0.00,,,-99.99,,2013-02-17 20:22:00,
2013-02-17 15:32:00,17.0,1.0,-100.00,SW,230,7.0,24.0,49,0.00,,,-99.99,,2013-02-17 20:32:00,
2013-02-17 15:42:00,17.0,1.0,-100.00,WSW,250,6.0,19.0,48,0.00,,,-99.99,,2013-02-17 20:42:00,
2013-02-17 15:52:00,17.0,1.0,-100.00,North,-999,-999.0,-999.0,49,0.00,,,-99.99,,2013-02-17 20:52:00,
2013-02-17 16:02:00,17.0,1.0,-100.00,West,270,10.0,21.0,49,0.00,,,-99.99,,2013-02-17 21:02:00,
2013-02-17 16:21:00,17.0,0.0,-100.00,SW,230,9.0,20.0,48,0.00,,,-99.99,,2013-02-17 21:21:00,
2013-02-17 16:32:00,17.0,1.0,-100.00,WSW,240,7.0,16.0,49,0.00,,,-99.99,,2013-02-17 21:32:00,
2013-02-17 16:42:00,17.0,1.0,-100.00,WSW,255,9.0,19.0,49,0.00,,,-99.99,,2013-02-17 21:42:00,
2013-02-17 16:52:00,16.0,1.0,-100.00,WSW,245,9.0,18.0,49,0.00,,,-99.99,,2013-02-17 21:52:00,
2013-02-17 17:01:00,16.0,0.0,-100.00,South,180,6.0,24.0,49,0.00,,,-99.99,,2013-02-17 22:01:00,
2013-02-17 17:12:00,16.0,1.0,-100.00,West,265,7.0,22.0,49,0.00,,,-99.99,,2013-02-17 22:12:00,
2013-02-17 17:22:00,16.0,1.0,-100.00,West,260,8.0,22.0,50,0.00,,,-99.99,,2013-02-17 22:22:00,
2013-02-17 17:32:00,16.0,1.0,-100.00,SW,235,4.0,13.0,51,0.00,,,-99.99,,2013-02-17 22:32:00,
2013-02-17 17:42:00,16.0,1.0,-100.00,WNW,285,7.0,16.0,51,0.00,,,-99.99,,2013-02-17 22:42:00,
2013-02-17 17:52:00,16.0,1.0,-100.00,SW,225,6.0,14.0,52,0.00,,,-99.99,,2013-02-17 22:52:00,
2013-02-17 18:02:00,15.0,1.0,-100.00,West,265,6.0,16.0,52,0.00,,,-99.99,,2013-02-17 23:02:00,
2013-02-17 18:11:00,15.0,1.0,-100.00,West,280,5.0,17.0,52,0.00,,,-99.99,,2013-02-17 23:11:00,
2013-02-17 18:21:00,15.0,1.0,-100.00,WSW,245,3.0,16.0,53,0.00,,,-99.99,,2013-02-17 23:21:00,
2013-02-17 18:32:00,15.0,1.0,-100.00,West,265,6.0,13.0,53,0.00,,,-99.99,,2013-02-17 23:32:00,
2013-02-17 18:42:00,15.0,1.0,-100.00,SW,230,6.0,16.0,52,0.00,,,-99.99,,2013-02-17 23:42:00,
2013-02-17 18:52:00,15.0,1.0,-100.00,SW,225,4.0,11.0,53,0.00,,,-99.99,,2013-02-17 23:52:00,
2013-02-17 19:01:00,15.0,0.0,-100.00,SW,225,6.0,14.0,51,0.00,,,-99.99,,2013-02-18 00:01:00,
2013-02-17 19:11:00,15.0,-1.0,-100.00,SW,230,7.0,14.0,48,0.00,,,-99.99,,2013-02-18 00:11:00,
2013-02-17 19:22:00,15.0,-1.0,-100.00,WSW,240,6.0,17.0,49,0.00,,,-99.99,,2013-02-18 00:22:00,
2013-02-17 19:32:00,14.0,-2.0,-100.00,SW,215,8.0,22.0,48,0.00,,,-99.99,,2013-02-18 00:32:00,
2013-02-17 19:41:00,14.0,-2.0,-100.00,SW,235,6.0,18.0,48,0.00,,,-99.99,,2013-02-18 00:41:00,
2013-02-17 19:52:00,13.0,-2.0,-100.00,SW,220,7.0,14.0,49,0.00,,,-99.99,,2013-02-18 00:52:00,
2013-02-17 20:01:00,13.0,-2.0,-100.00,WSW,250,7.0,18.0,50,0.00,,,-99.99,,2013-02-18 01:01:00,
2013-02-17 20:12:00,13.0,-2.0,-100.00,SW,235,7.0,14.0,50,0.00,,,-99.99,,2013-02-18 01:12:00,
2013-02-17 20:21:00,12.0,-2.0,-100.00,SW,225,6.0,14.0,51,0.00,,,-99.99,,2013-02-18 01:21:00,
2013-02-17 20:32:00,12.0,-2.0,-100.00,SSW,210,7.0,17.0,51,0.00,,,-99.99,,2013-02-18 01:32:00,
2013-02-17 20:41:00,12.0,-3.0,-100.00,SSW,210,7.0,17.0,51,0.00,,,-99.99,,2013-02-18 01:41:00,
2013-02-17 20:51:00,12.0,-3.0,-100.00,SW,225,8.0,19.0,52,0.00,,,-99.99,,2013-02-18 01:51:00,
2013-02-17 21:02:00,11.0,-2.0,-100.00,WSW,240,6.0,13.0,53,0.00,,,-99.99,,2013-02-18 02:02:00,
2013-02-17 21:11:00,11.0,-3.0,-100.00,SW,225,6.0,16.0,53,0.00,,,-99.99,,2013-02-18 02:11:00,
2013-02-17 21:22:00,11.0,-3.0,-100.00,SSW,200,9.0,19.0,53,0.00,,,-99.99,,2013-02-18 02:22:00,
2013-02-17 21:32:00,11.0,-3.0,-100.00,WSW,245,7.0,17.0,53,0.00,,,-99.99,,2013-02-18 02:32:00,
2013-02-17 21:41:00,11.0,-3.0,-100.00,SW,225,7.0,17.0,54,0.00,,,-99.99,,2013-02-18 02:41:00,
2013-02-17 21:52:00,10.0,-3.0,-100.00,SW,215,9.0,18.0,55,0.00,,,-99.99,,2013-02-18 02:52:00,
2013-02-17 22:02:00,10.0,-3.0,-100.00,WSW,245,7.0,17.0,55,0.00,,,-99.99,,2013-02-18 03:02:00,
2013-02-17 22:11:00,10.0,-2.0,-100.00,SSW,210,7.0,16.0,56,0.00,,,-99.99,,2013-02-18 03:11:00,
2013-02-17 22:21:00,10.0,-2.0,-100.00,SSW,210,7.0,18.0,57,0.00,,,-99.99,,2013-02-18 03:21:00,
2013-02-17 22:32:00,10.0,-3.0,-100.00,SW,230,6.0,19.0,56,0.00,,,-99.99,,2013-02-18 03:32:00,
2013-02-17 22:42:00,10.0,-3.0,-100.00,SW,215,7.0,17.0,55,0.00,,,-99.99,,2013-02-18 03:42:00,
2013-02-17 22:51:00,10.0,-3.0,-100.00,SW,230,6.0,12.0,56,0.00,,,-99.99,,2013-02-18 03:51:00,
2013-02-17 23:01:00,9.0,-2.0,-100.00,SW,230,5.0,20.0,57,0.00,,,-99.99,,2013-02-18 04:01:00,
2013-02-17 23:11:00,9.0,-3.0,-100.00,SW,230,5.0,17.0,56,0.00,,,-99.99,,2013-02-18 04:11:00,
2013-02-17 23:21:00,9.0,-3.0,-100.00,WSW,255,7.0,16.0,56,0.00,,,-99.99,,2013-02-18 04:21:00,
2013-02-17 23:32:00,9.0,-3.0,-100.00,SW,215,6.0,16.0,56,0.00,,,-99.99,,2013-02-18 04:32:00,
2013-02-17 23:42:00,9.0,-3.0,-100.00,West,280,6.0,17.0,57,0.00,,,-99.99,,2013-02-18 04:42:00,
2013-02-17 23:51:00,9.0,-3.0,-100.00,SW,225,6.0,20.0,57,0.00,,,-99.99,,2013-02-18 04:51:00,